EW4883 Weather Reports


Display with metric or nautical units.
time (UTC)temp
F
wind
direction
speed
MPH
gust
MPH
rain 1hr
in
rain 24hr
in
rain mn
in
humidity
%
barometer
mb
20200710185054 98 298 8.0 15.0 0.00 0.00 0.00 25 1017.8
20200710184623 97 275 6.0 17.0 0.00 0.00 0.00 26 1017.8
20200710184056 97 308 9.0 17.0 0.00 0.00 0.00 26 1018.1
20200710183607 97 327 9.0 15.0 0.00 0.00 0.00 27 1018.2
20200710183156 97 297 7.0 15.0 0.00 0.00 0.00 27 1018.2
20200710182549 98 279 7.0 15.0 0.00 0.00 0.00 26 1018.2
20200710182116 97 352 5.0 15.0 0.00 0.00 0.00 27 1018.2
20200710181916 97 293 7.0 15.0 0.00 0.00 0.00 25 1018.2
20200710181051 97 278 6.0 14.0 0.00 0.00 0.00 25 1018.2
20200710180559 96 347 7.0 13.0 0.00 0.00 0.00 26 1018.3
20200710180204 96 329 5.0 9.0 0.00 0.00 0.00 26 1018.3
20200710175552 95 320 5.0 13.0 0.00 0.00 0.00 27 1018.4
20200710175102 95 345 6.0 13.0 0.00 0.00 0.00 26 1018.5
20200710174608 95 307 4.0 12.0 0.00 0.00 0.00 27 1018.6
20200710174049 95 17 3.0 10.0 0.00 0.00 0.00 26 1018.6
20200710173558 95 320 4.0 11.0 0.00 0.00 0.00 26 1018.5
20200710173408 95 275 6.0 11.0 0.00 0.00 0.00 26 1018.5
20200710172602 95 257 3.0 11.0 0.00 0.00 0.00 25 1018.5
20200710172053 94 9 3.0 9.0 0.00 0.00 0.00 26 1018.5
20200710171605 93 266 4.0 9.0 0.00 0.00 0.00 26 1018.6
20200710171048 93 276 3.0 11.0 0.00 0.00 0.00 26 1018.7
20200710170554 93 320 5.0 11.0 0.00 0.00 0.00 26 1018.8
20200710170135 93 300 4.0 11.0 0.00 0.00 0.00 27 1018.8
20200710165548 93 277 4.0 9.0 0.00 0.00 0.00 27 1018.8
20200710165050 93 346 5.0 9.0 0.00 0.00 0.00 27 1018.7
20200710164624 93 252 3.0 7.0 0.00 0.00 0.00 27 1018.7
20200710164051 93 255 2.0 9.0 0.00 0.00 0.00 28 1018.9
20200710163605 92 273 5.0 11.0 0.00 0.00 0.00 28 1018.9
20200710163155 93 294 4.0 11.0 0.00 0.00 0.00 27 1018.8
20200710162606 93 352 4.0 9.0 0.00 0.00 0.00 27 1018.7
20200710162103 93 347 4.0 8.0 0.00 0.00 0.00 27 1018.8
20200710161616 93 329 3.0 8.0 0.00 0.00 0.00 27 1018.9
20200710161053 93 352 3.0 8.0 0.00 0.00 0.00 28 1018.9
20200710160555 92 5 4.0 8.0 0.00 0.00 0.00 28 1018.9
20200710160136 91 30 3.0 8.0 0.00 0.00 0.00 28 1018.9
20200710155548 91 352 2.0 8.0 0.00 0.00 0.00 29 1019.0
20200710155106 91 36 2.0 6.0 0.00 0.00 0.00 29 1019.0
20200710154618 92 283 2.0 9.0 0.00 0.00 0.00 29 1019.1
20200710154100 92 352 4.0 9.0 0.00 0.00 0.00 28 1019.1
20200710153629 92 66 3.0 6.0 0.00 0.00 0.00 29 1019.1
20200710153240 92 57 3.0 8.0 0.00 0.00 0.00 29 1019.2
20200710152552 91 94 3.0 8.0 0.00 0.00 0.00 29 1019.2
20200710152050 91 246 2.0 7.0 0.00 0.00 0.00 30 1019.1
20200710151640 91 17 2.0 5.0 0.00 0.00 0.00 31 1019.1
20200710151048 90 0 2.0 5.0 0.00 0.00 0.00 31 1019.0
20200710150604 90 103 2.0 4.0 0.00 0.00 0.00 32 1018.9
20200710150227 89 67 2.0 4.0 0.00 0.00 0.00 33 1018.9
20200710145553 89 113 1.0 5.0 0.00 0.00 0.00 34 1018.9
20200710145052 88 125 2.0 5.0 0.00 0.00 0.00 34 1018.9
20200710144646 88 360 2.0 5.0 0.00 0.00 0.00 35 1018.8
20200710144052 87 51 2.0 4.0 0.00 0.00 0.00 35 1018.8
20200710143553 87 51 2.0 4.0 0.00 0.00 0.00 36 1018.8
20200710143136 87 50 1.0 3.0 0.00 0.00 0.00 36 1018.7
20200710142641 87 50 1.0 3.0 0.00 0.00 0.00 36 1018.7
20200710142052 86 50 0.0 2.0 0.00 0.00 0.00 36 1018.7
20200710141611 86 0 0.0 2.0 0.00 0.00 0.00 37 1018.6
20200710141050 86 0 0.0 2.0 0.00 0.00 0.00 37 1018.5
20200710140550 85 0 0.0 0.0 0.00 0.00 0.00 37 1018.5
20200710140201 85 0 0.0 0.0 0.00 0.00 0.00 38 1018.3
20200710135613 85 0 0.0 0.0 0.00 0.00 0.00 38 1018.2
20200710135051 84 0 0.0 0.0 0.00 0.00 0.00 39 1018.1
20200710134619 84 0 0.0 0.0 0.00 0.00 0.00 39 1018.1
20200710134059 84 0 0.0 0.0 0.00 0.00 0.00 39 1018.1
20200710133559 84 0 0.0 0.0 0.00 0.00 0.00 39 1018.1
20200710133136 84 0 0.0 0.0 0.00 0.00 0.00 39 1018.0
20200710132551 84 0 0.0 0.0 0.00 0.00 0.00 39 1017.9
20200710132115 83 0 0.0 0.0 0.00 0.00 0.00 38 1017.8
20200710131731 83 0 0.0 0.0 0.00 0.00 0.00 39 1017.8
20200710131100 83 0 0.0 1.0 0.00 0.00 0.00 38 1017.7
20200710130555 83 0 0.0 2.0 0.00 0.00 0.00 38 1017.7
20200710130149 83 235 1.0 2.0 0.00 0.00 0.00 38 1017.6
20200710125550 84 235 0.0 3.0 0.00 0.00 0.00 37 1017.5
20200710125051 84 0 0.0 3.0 0.00 0.00 0.00 37 1017.4
20200710124631 84 0 0.0 3.0 0.00 0.00 0.00 37 1017.3
20200710124052 84 235 1.0 4.0 0.00 0.00 0.00 37 1017.1
20200710123604 84 235 1.0 4.0 0.00 0.00 0.00 37 1017.0
20200710123258 84 235 2.0 3.0 0.00 0.00 0.00 37 1016.8
20200710122604 84 235 1.0 4.0 0.00 0.00 0.00 37 1016.8
20200710122051 84 235 0.0 4.0 0.00 0.00 0.00 37 1016.8
20200710121704 84 235 1.0 4.0 0.00 0.00 0.00 37 1016.8
20200710121051 84 211 1.0 3.0 0.00 0.00 0.00 37 1016.7
20200710120557 84 211 1.0 4.0 0.00 0.00 0.00 38 1016.7
20200710120127 83 211 2.0 4.0 0.00 0.00 0.00 38 1016.7
20200710115627 84 211 1.0 2.0 0.00 0.00 0.00 38 1016.5
20200710115052 84 211 1.0 2.0 0.00 0.00 0.00 37 1016.6
20200710114657 85 0 0.0 2.0 0.00 0.00 0.00 37 1016.5
20200710114052 85 211 0.0 2.0 0.00 0.00 0.00 37 1016.4
20200710113615 85 211 0.0 2.0 0.00 0.00 0.00 37 1016.4
20200710113138 86 0 0.0 2.0 0.00 0.00 0.00 36 1016.4
20200710112552 86 0 0.0 3.0 0.00 0.00 0.00 37 1016.3
20200710112053 86 0 0.0 3.0 0.00 0.00 0.00 37 1016.3
20200710111623 86 211 0.0 2.0 0.00 0.00 0.00 36 1016.3
20200710111055 87 0 0.0 2.0 0.00 0.00 0.00 35 1016.3
20200710110556 87 0 0.0 5.0 0.00 0.00 0.00 34 1016.2
20200710110216 87 211 2.0 5.0 0.00 0.00 0.00 34 1016.2
20200710105553 87 205 3.0 5.0 0.00 0.00 0.00 35 1016.1
20200710105050 87 0 0.0 7.0 0.00 0.00 0.00 35 1016.1
20200710104621 87 0 1.0 7.0 0.00 0.00 0.00 36 1016.0
20200710104100 87 53 2.0 4.0 0.00 0.00 0.00 37 1016.1
20200710103601 87 0 0.0 3.0 0.00 0.00 0.00 37 1016.0
20200710103143 87 52 2.0 3.0 0.00 0.00 0.00 36 1016.0
20200710102613 87 52 1.0 4.0 0.00 0.00 0.00 36 1016.0
20200710102053 87 52 1.0 4.0 0.00 0.00 0.00 36 1015.9
20200710101806 87 52 1.0 4.0 0.00 0.00 0.00 36 1015.9
20200710101106 88 53 3.0 9.0 0.00 0.00 0.00 36 1016.0
20200710100551 88 53 5.0 9.0 0.00 0.00 0.00 36 1016.0
20200710100259 88 22 4.0 8.0 0.00 0.00 0.00 36 1015.8
20200710095551 88 327 2.0 6.0 0.00 0.00 0.00 35 1015.8
20200710095108 89 350 2.0 7.0 0.00 0.00 0.00 34 1015.9
20200710094644 89 281 2.0 8.0 0.00 0.00 0.00 34 1015.9
20200710094110 89 233 4.0 8.0 0.00 0.00 0.00 34 1015.8
20200710093556 89 207 3.0 13.0 0.00 0.00 0.00 34 1015.7
20200710093121 89 229 4.0 13.0 0.00 0.00 0.00 34 1015.6
20200710092550 89 229 6.0 13.0 0.00 0.00 0.00 34 1015.5
20200710092122 89 226 5.0 11.0 0.00 0.00 0.00 34 1015.4
20200710091742 89 225 6.0 17.0 0.00 0.00 0.00 34 1015.5
20200710091102 89 224 7.0 17.0 0.00 0.00 0.00 34 1015.7
20200710090558 89 232 5.0 15.0 0.00 0.00 0.00 34 1015.6
20200710090132 89 221 4.0 19.0 0.00 0.00 0.00 34 1015.7
20200710085550 89 209 5.0 19.0 0.00 0.00 0.00 34 1015.7
20200710085113 90 207 7.0 20.0 0.00 0.00 0.00 35 1015.6
20200710084602 90 224 9.0 20.0 0.00 0.00 0.00 34 1015.6
20200710084051 90 240 8.0 19.0 0.00 0.00 0.00 34 1015.5
20200710083555 90 223 8.0 18.0 0.00 0.00 0.00 33 1015.4
20200710083119 90 167 6.0 13.0 0.00 0.00 0.00 32 1015.5
20200710082550 90 244 5.0 15.0 0.00 0.00 0.00 31 1015.4
20200710082051 90 217 7.0 18.0 0.00 0.00 0.00 31 1015.5
20200710081606 91 240 8.0 18.0 0.00 0.00 0.00 30 1015.5
20200710081050 91 248 5.0 15.0 0.00 0.00 0.00 30 1015.5
20200710080551 91 240 6.0 15.0 0.00 0.00 0.00 29 1015.5
20200710080144 91 213 7.0 13.0 0.00 0.00 0.00 29 1015.4
20200710075601 91 226 4.0 13.0 0.00 0.00 0.00 29 1015.4
20200710075051 91 254 6.0 13.0 0.00 0.00 0.00 29 1015.4
20200710074743 91 234 6.0 12.0 0.00 0.00 0.00 29 1015.4
20200710074052 91 230 6.0 11.0 0.00 0.00 0.00 28 1015.4
20200710073550 91 233 6.0 14.0 0.00 0.00 0.00 28 1015.4
20200710073248 91 243 8.0 14.0 0.00 0.00 0.00 28 1015.2
20200710072549 91 243 9.0 15.0 0.00 0.00 0.00 28 1015.1
20200710072052 91 254 8.0 15.0 0.00 0.00 0.00 28 1015.0
20200710071051 91 247 8.0 15.0 0.00 0.00 0.00 28 1015.0
20200710070555 91 217 7.0 13.0 0.00 0.00 0.00 29 1015.1
20200710070112 91 248 7.0 13.0 0.00 0.00 0.00 29 1015.0
20200710065558 91 234 5.0 10.0 0.00 0.00 0.00 29 1014.8
20200710065050 91 259 6.0 10.0 0.00 0.00 0.00 29 1014.6
20200710064635 91 270 5.0 13.0 0.00 0.00 0.00 29 1014.6
20200710064102 92 277 5.0 13.0 0.00 0.00 0.00 29 1014.7
20200710063550 92 263 5.0 11.0 0.00 0.00 0.00 29 1014.8
20200710063157 92 252 5.0 9.0 0.00 0.00 0.00 29 1015.0
20200710062609 92 246 5.0 10.0 0.00 0.00 0.00 29 1015.0
20200710062050 92 227 6.0 10.0 0.00 0.00 0.00 28 1015.1
20200710061726 93 248 4.0 8.0 0.00 0.00 0.00 27 1015.0
20200710061050 93 259 3.0 7.0 0.00 0.00 0.00 25 1014.9
20200710060551 93 264 3.0 11.0 0.00 0.00 0.00 25 1014.8
20200710060252 93 264 5.0 11.0 0.00 0.00 0.00 25 1014.8
20200710055553 93 284 5.0 11.0 0.00 0.00 0.00 25 1014.8
20200710055050 93 254 5.0 10.0 0.00 0.00 0.00 25 1014.6
20200710054611 93 259 5.0 12.0 0.00 0.00 0.00 24 1014.4
20200710054058 94 248 6.0 12.0 0.00 0.00 0.00 24 1014.4
20200710053550 94 276 7.0 15.0 0.00 0.00 0.00 24 1014.3
20200710053122 94 254 8.0 15.0 0.00 0.00 0.00 24 1014.2
20200710052556 94 256 8.0 14.0 0.00 0.00 0.00 24 1014.1
20200710052055 94 250 6.0 14.0 0.00 0.00 0.00 23 1014.1
20200710051636 95 275 6.0 12.0 0.00 0.00 0.00 23 1014.1
20200710051055 95 281 5.0 10.0 0.00 0.00 0.00 23 1014.1
20200710050552 94 269 3.0 10.0 0.00 0.00 0.00 23 1014.1
20200710050157 94 292 3.0 8.0 0.00 0.00 0.00 23 1014.0
20200710045622 95 279 3.0 11.0 0.00 0.00 0.00 25 1013.8
20200710045051 95 269 7.0 11.0 0.00 0.00 0.00 24 1013.7
20200710044646 95 279 5.0 12.0 0.00 0.00 0.00 24 1013.5
20200710044056 96 249 6.0 12.0 0.00 0.00 0.00 23 1013.6
20200710043551 96 253 6.0 11.0 0.00 0.00 0.00 22 1013.5
20200710043204 96 245 7.0 11.0 0.00 0.00 0.00 21 1013.4
20200710042550 97 257 5.0 12.0 0.00 0.00 0.00 20 1013.5
20200710042049 97 277 6.0 12.0 0.00 0.00 0.00 20 1013.4
20200710041726 97 253 5.0 10.0 0.00 0.00 0.00 20 1013.3
20200710041113 97 230 5.0 9.0 0.00 0.00 0.00 21 1013.4
20200710040555 97 260 5.0 11.0 0.00 0.00 0.00 21 1013.4
20200710040137 97 233 5.0 11.0 0.00 0.00 0.00 21 1013.3
20200710035551 97 240 5.0 10.0 0.00 0.00 0.00 22 1013.2
20200710035100 97 254 4.0 10.0 0.00 0.00 0.00 22 1013.1
20200710034627 97 259 4.0 9.0 0.00 0.00 0.00 22 1013.1
20200710034104 97 251 3.0 10.0 0.00 0.00 0.00 23 1013.1
20200710033552 97 242 4.0 10.0 0.00 0.00 0.00 23 1013.0
20200710033154 98 251 4.0 9.0 0.00 0.00 0.00 23 1012.9
20200710032605 98 236 5.0 9.0 0.00 0.00 0.00 21 1012.7
20200710032114 98 275 4.0 11.0 0.00 0.00 0.00 21 1012.6
20200710031610 99 269 7.0 11.0 0.00 0.00 0.00 21 1012.5
20200710031057 99 275 4.0 11.0 0.00 0.00 0.00 21 1012.4
20200710030556 99 284 6.0 13.0 0.00 0.00 0.00 21 1012.2
20200710030125 99 300 8.0 14.0 0.00 0.00 0.00 21 1012.2
20200710025552 99 255 7.0 14.0 0.00 0.00 0.00 21 1012.2
20200710025053 99 280 6.0 11.0 0.00 0.00 0.00 21 1012.1
20200710024653 99 289 6.0 11.0 0.00 0.00 0.00 22 1012.1
20200710024052 100 286 5.0 13.0 0.00 0.00 0.00 22 1012.0
20200710023608 100 264 5.0 13.0 0.00 0.00 0.00 22 1012.0
20200710023146 100 282 6.0 13.0 0.00 0.00 0.00 22 1011.9
20200710022551 100 296 6.0 12.0 0.00 0.00 0.00 22 1011.9
20200710022052 100 307 4.0 10.0 0.00 0.00 0.00 22 1011.8
20200710021629 100 344 4.0 10.0 0.00 0.00 0.00 22 1011.8
20200710021105 101 308 5.0 10.0 0.00 0.00 0.00 22 1011.8
20200710020549 101 277 5.0 10.0 0.00 0.00 0.00 22 1011.8
20200710020149 101 301 4.0 9.0 0.00 0.00 0.00 22 1011.8
20200710015549 101 327 3.0 11.0 0.00 0.00 0.00 22 1011.8
20200710015103 101 303 4.0 11.0 0.00 0.00 0.00 22 1011.7
20200710014618 101 294 4.0 11.0 0.00 0.00 0.00 22 1011.8
20200710014118 101 306 5.0 13.0 0.00 0.00 0.00 22 1011.7
20200710013557 101 279 7.0 13.0 0.00 0.00 0.00 22 1011.7
20200710013343 101 270 3.0 11.0 0.00 0.00 0.00 22 1011.6
20200710012556 101 281 6.0 11.0 0.00 0.00 0.00 22 1011.6
20200710012052 102 305 3.0 11.0 0.00 0.00 0.00 22 1011.5
20200710011743 102 309 4.0 13.0 0.00 0.00 0.00 22 1011.5
20200710011051 102 5 6.0 13.0 0.00 0.00 0.00 22 1011.3
20200710010552 103 309 4.0 12.0 0.00 0.00 0.00 21 1011.4
20200710010122 103 277 6.0 12.0 0.00 0.00 0.00 21 1011.2
20200710005553 103 315 4.0 12.0 0.00 0.00 0.00 21 1011.3
20200710005051 103 309 6.0 17.0 0.00 0.00 0.00 21 1011.2
20200710004740 103 317 7.0 17.0 0.00 0.00 0.00 21 1011.2
20200710004103 104 333 6.0 16.0 0.00 0.00 0.00 21 1011.2
20200710003606 104 339 5.0 16.0 0.00 0.00 0.00 21 1011.2
20200710003059 104 289 5.0 13.0 0.00 0.00 0.00 21 1011.2
20200710002552 104 337 6.0 12.0 0.00 0.00 0.00 21 1011.3
20200710002056 104 352 6.0 11.0 0.00 0.00 0.00 21 1011.3
20200710001645 104 308 4.0 16.0 0.00 0.00 0.00 21 1011.3
20200710001052 104 277 10.0 16.0 0.00 0.00 0.00 21 1011.2
20200710000604 104 318 7.0 12.0 0.00 0.00 0.00 21 1011.3
20200710000059 104 285 6.0 14.0 0.00 0.00 0.00 21 1011.3
20200709235552 104 294 6.0 15.0 0.00 0.00 0.00 20 1011.3
20200709235052 104 250 8.0 17.0 0.00 0.00 0.00 20 1011.4
20200709234732 104 303 11.0 17.0 0.00 0.00 0.00 21 1011.3
20200709234052 104 252 6.0 17.0 0.00 0.00 0.00 20 1011.4
20200709233550 104 292 9.0 17.0 0.00 0.00 0.00 20 1011.4
20200709233136 105 225 9.0 16.0 0.00 0.00 0.00 20 1011.6
20200709232549 105 270 7.0 16.0 0.00 0.00 0.00 19 1011.5
20200709232111 105 342 9.0 16.0 0.00 0.00 0.00 20 1011.5
20200709231806 105 297 5.0 13.0 0.00 0.00 0.00 20 1011.5
20200709231051 105 294 5.0 16.0 0.00 0.00 0.00 19 1011.6
20200709230551 105 327 8.0 16.0 0.00 0.00 0.00 19 1011.8
20200709230149 104 31 9.0 16.0 0.00 0.00 0.00 19 1011.8
20200709225551 104 282 6.0 13.0 0.00 0.00 0.00 19 1011.7
20200709225056 104 343 6.0 18.0 0.00 0.00 0.00 19 1011.8
20200709224805 105 336 11.0 18.0 0.00 0.00 0.00 19 1012.0
20200709224051 105 283 5.0 17.0 0.00 0.00 0.00 19 1011.8
20200709223552 105 325 7.0 17.0 0.00 0.00 0.00 19 1012.0
20200709223239 105 315 5.0 16.0 0.00 0.00 0.00 19 1012.0
20200709222553 104 280 7.0 16.0 0.00 0.00 0.00 19 1012.1
20200709222052 104 288 8.0 15.0 0.00 0.00 0.00 19 1012.1
20200709221641 104 234 2.0 11.0 0.00 0.00 0.00 19 1012.2
20200709221052 105 293 5.0 14.0 0.00 0.00 0.00 19 1012.4
20200709220549 105 11 8.0 14.0 0.00 0.00 0.00 19 1012.4
20200709220137 104 258 8.0 12.0 0.00 0.00 0.00 19 1012.4
20200709215553 104 242 5.0 15.0 0.00 0.00 0.00 19 1012.4
20200709215059 104 307 7.0 15.0 0.00 0.00 0.00 19 1012.5
20200709214712 104 265 5.0 12.0 0.00 0.00 0.00 19 1012.6
20200709214058 104 5 3.0 15.0 0.00 0.00 0.00 19 1012.6
20200709213831 104 329 9.0 15.0 0.00 0.00 0.00 19 1012.8
20200709213226 105 340 6.0 13.0 0.00 0.00 0.00 19 1012.9
20200709212640 105 219 4.0 14.0 0.00 0.00 0.00 19 1012.8
20200709212131 104 259 8.0 14.0 0.00 0.00 0.00 19 1012.8
20200709211735 104 278 8.0 14.0 0.00 0.00 0.00 20 1012.9
20200709211051 103 265 7.0 14.0 0.00 0.00 0.00 20 1012.9
20200709210556 102 299 5.0 11.0 0.00 0.00 0.00 20 1013.0
20200709210153 102 24 4.0 10.0 0.00 0.00 0.00 20 1013.0
20200709205550 103 331 4.0 10.0 0.00 0.00 0.00 20 1013.1
20200709205056 102 298 4.0 12.0 0.00 0.00 0.00 21 1013.1
20200709204610 101 352 5.0 13.0 0.00 0.00 0.00 21 1013.2
20200709204207 101 243 7.0 14.0 0.00 0.00 0.00 21 1013.3
20200709204054 102 293 7.0 14.0 0.00 0.00 0.00 21 1013.4
20200709203903 102 333 7.0 13.0 0.00 0.00 0.00 21 1013.3
20200709202549 102 42 5.0 9.0 0.00 0.00 0.00 20 1013.3
20200709202049 104 198 1.0 13.0 0.00 0.00 0.00 20 1013.5
20200709201656 104 269 6.0 14.0 0.00 0.00 0.00 20 1013.6
20200709201101 104 253 7.0 15.0 0.00 0.00 0.00 19 1013.5
20200709200552 103 236 5.0 15.0 0.00 0.00 0.00 20 1013.5
20200709200154 103 289 4.0 11.0 0.00 0.00 0.00 20 1013.6
20200709195549 102 304 3.0 20.0 0.00 0.00 0.00 20 1013.6
20200709195052 102 352 3.0 20.0 0.00 0.00 0.00 20 1013.7
20200709194622 102 300 2.0 12.0 0.00 0.00 0.00 20 1013.7
20200709194052 103 275 6.0 13.0 0.00 0.00 0.00 20 1013.9
20200709193550 103 302 8.0 13.0 0.00 0.00 0.00 19 1013.9
20200709193114 103 277 3.0 8.0 0.00 0.00 0.00 19 1014.0
20200709192552 103 195 2.0 7.0 0.00 0.00 0.00 20 1014.0
20200709192051 102 204 2.0 9.0 0.00 0.00 0.00 20 1013.9
20200709191637 102 148 4.0 11.0 0.00 0.00 0.00 20 1014.0
20200709191054 101 217 5.0 11.0 0.00 0.00 0.00 21 1014.0
20200709190555 101 223 5.0 11.0 0.00 0.00 0.00 21 1014.1
20200709190120 101 207 3.0 12.0 0.00 0.00 0.00 20 1014.1
20200709185606 102 236 4.0 12.0 0.00 0.00 0.00 20 1014.3